Time,TemperatureF,DewpointF,PressureIn,WindDirection,WindDirectionDegrees,WindSpeedMPH,WindSpeedGustMPH,Humidity,HourlyPrecipIn,Conditions,Clouds,dailyrainin,SoftwareType,DateUTC
2013-01-25 05:24:00,18.1,-11.8,0.00,East,95,0.0,0.0,25,0.00,,,0.00,Weather View 32 v70,2013-01-25 10:24:00,
2013-01-25 05:29:00,18.1,-11.8,0.00,East,95,0.0,0.0,25,0.00,,,0.00,Weather View 32 v70,2013-01-25 10:29:00,
2013-01-25 05:35:00,18.0,-11.9,0.00,East,95,0.0,3.0,25,0.00,,,0.00,Weather View 32 v70,2013-01-25 10:35:00,
2013-01-25 05:40:00,17.8,-13.8,0.00,East,95,0.0,3.0,23,0.00,,,0.00,Weather View 32 v70,2013-01-25 10:40:00,
2013-01-25 05:45:00,18.1,-11.8,0.00,East,95,0.0,3.0,25,0.00,,,0.00,Weather View 32 v70,2013-01-25 10:45:00,
2013-01-25 05:50:00,18.1,-13.4,0.00,East,95,0.0,3.0,23,0.00,,,0.00,Weather View 32 v70,2013-01-25 10:50:00,
2013-01-25 05:55:00,18.5,-13.1,0.00,East,95,0.0,3.0,23,0.00,,,0.00,Weather View 32 v70,2013-01-25 10:55:00,
2013-01-25 06:00:00,18.7,-13.0,0.00,East,95,0.0,3.0,23,0.00,,,0.00,Weather View 32 v70,2013-01-25 11:00:00,
2013-01-25 06:05:00,18.7,-13.0,0.00,East,95,0.0,3.0,23,0.00,,,0.00,Weather View 32 v70,2013-01-25 11:05:00,
2013-01-25 06:10:00,18.7,-13.0,0.00,East,95,0.0,3.0,23,0.00,,,0.00,Weather View 32 v70,2013-01-25 11:10:00,
2013-01-25 06:15:00,18.7,-13.0,0.00,NE,50,0.0,3.0,23,0.00,,,0.00,Weather View 32 v70,2013-01-25 11:15:00,
2013-01-25 06:20:00,18.9,-12.8,0.00,NE,50,0.0,3.0,23,0.00,,,0.00,Weather View 32 v70,2013-01-25 11:20:00,
2013-01-25 06:25:00,19.0,-12.7,0.00,NE,50,0.0,3.0,23,0.00,,,0.00,Weather View 32 v70,2013-01-25 11:25:00,
2013-01-25 06:30:00,19.0,-12.7,0.00,NE,50,0.0,3.0,23,0.00,,,0.00,Weather View 32 v70,2013-01-25 11:30:00,
2013-01-25 06:36:00,19.0,-12.7,0.00,NE,50,0.0,3.0,23,0.00,,,0.00,Weather View 32 v70,2013-01-25 11:36:00,
2013-01-25 06:41:00,19.2,-12.5,0.00,NE,50,0.0,3.0,23,0.00,,,0.00,Weather View 32 v70,2013-01-25 11:41:00,
2013-01-25 06:46:00,19.2,-12.5,0.00,NE,50,0.0,3.0,23,0.00,,,0.00,Weather View 32 v70,2013-01-25 11:46:00,
2013-01-25 06:51:00,19.0,-12.7,0.00,NE,50,0.0,3.0,23,0.00,,,0.00,Weather View 32 v70,2013-01-25 11:51:00,
2013-01-25 06:56:00,19.2,-12.5,0.00,SSE,167,0.0,3.0,23,0.00,,,0.00,Weather View 32 v70,2013-01-25 11:56:00,
2013-01-25 07:01:00,19.2,-12.5,0.00,SE,136,0.0,3.0,23,0.00,,,0.00,Weather View 32 v70,2013-01-25 12:01:00,
2013-01-25 07:06:00,19.0,-12.7,0.00,WNW,301,0.0,4.0,23,0.00,,,0.00,Weather View 32 v70,2013-01-25 12:06:00,
2013-01-25 07:11:00,19.6,-13.1,0.00,SW,223,0.0,4.0,22,0.00,,,0.00,Weather View 32 v70,2013-01-25 12:11:00,
2013-01-25 07:16:00,19.9,-12.8,0.00,ENE,60,0.0,4.0,22,0.00,,,0.00,Weather View 32 v70,2013-01-25 12:16:00,
2013-01-25 07:21:00,20.3,-12.5,0.00,WNW,297,0.0,4.0,22,0.00,,,0.00,Weather View 32 v70,2013-01-25 12:21:00,
2013-01-25 07:26:00,20.3,-12.5,0.00,NNE,29,3.0,4.0,22,0.00,,,0.00,Weather View 32 v70,2013-01-25 12:26:00,
2013-01-25 07:32:00,20.5,-12.3,0.00,NE,53,0.0,4.0,22,0.00,,,0.00,Weather View 32 v70,2013-01-25 12:32:00,
2013-01-25 07:37:00,20.5,-12.3,0.00,NE,53,0.0,4.0,22,0.00,,,0.00,Weather View 32 v70,2013-01-25 12:37:00,
2013-01-25 07:42:00,20.7,-12.2,0.00,NNW,343,0.0,4.0,22,0.00,,,0.00,Weather View 32 v70,2013-01-25 12:42:00,
2013-01-25 07:47:00,20.8,-12.0,0.00,NW,306,3.0,4.0,22,0.00,,,0.00,Weather View 32 v70,2013-01-25 12:47:00,
2013-01-25 07:53:00,21.2,-11.7,0.00,West,274,3.0,6.0,22,0.00,,,0.00,Weather View 32 v70,2013-01-25 12:53:00,
2013-01-25 07:58:00,21.2,-11.7,0.00,NW,322,0.0,6.0,22,0.00,,,0.00,Weather View 32 v70,2013-01-25 12:58:00,
2013-01-25 08:03:00,21.4,-11.6,0.00,West,276,4.0,6.0,22,0.00,,,0.00,Weather View 32 v70,2013-01-25 13:03:00,
2013-01-25 08:08:00,21.6,-11.4,0.00,West,276,3.0,6.0,22,0.00,,,0.00,Weather View 32 v70,2013-01-25 13:08:00,
2013-01-25 08:13:00,21.7,-11.3,0.00,West,272,3.0,6.0,22,0.00,,,0.00,Weather View 32 v70,2013-01-25 13:13:00,
2013-01-25 08:18:00,21.6,-11.4,0.00,WNW,288,5.0,6.0,22,0.00,,,0.00,Weather View 32 v70,2013-01-25 13:18:00,
2013-01-25 08:23:00,21.4,-11.6,0.00,NNW,338,4.0,6.0,22,0.00,,,0.00,Weather View 32 v70,2013-01-25 13:23:00,
2013-01-25 08:29:00,21.4,-11.6,0.00,West,265,5.0,6.0,22,0.00,,,0.00,Weather View 32 v70,2013-01-25 13:29:00,
2013-01-25 08:34:00,21.4,-11.6,0.00,NW,306,0.0,6.0,22,0.00,,,0.00,Weather View 32 v70,2013-01-25 13:34:00,
2013-01-25 08:39:00,21.6,-11.4,0.00,West,276,0.0,6.0,22,0.00,,,0.00,Weather View 32 v70,2013-01-25 13:39:00,
2013-01-25 08:44:00,21.7,-11.3,0.00,West,268,0.0,6.0,22,0.00,,,0.00,Weather View 32 v70,2013-01-25 13:44:00,
2013-01-25 08:49:00,21.7,-11.3,0.00,West,272,3.0,6.0,22,0.00,,,0.00,Weather View 32 v70,2013-01-25 13:49:00,
2013-01-25 08:54:00,21.7,-11.3,0.00,West,271,3.0,6.0,22,0.00,,,0.00,Weather View 32 v70,2013-01-25 13:54:00,
2013-01-25 08:59:00,21.9,-11.1,0.00,West,271,0.0,6.0,22,0.00,,,0.00,Weather View 32 v70,2013-01-25 13:59:00,
2013-01-25 09:04:00,21.9,-11.1,0.00,NE,43,3.0,6.0,22,0.00,,,0.00,Weather View 32 v70,2013-01-25 14:04:00,
2013-01-25 09:09:00,22.1,-11.0,0.00,WNW,288,4.0,6.0,22,0.00,,,0.00,Weather View 32 v70,2013-01-25 14:09:00,
2013-01-25 09:14:00,21.9,-11.1,0.00,WNW,289,0.0,6.0,22,0.00,,,0.00,Weather View 32 v70,2013-01-25 14:14:00,
2013-01-25 09:19:00,22.1,-11.0,0.00,SE,134,4.0,6.0,22,0.00,,,0.00,Weather View 32 v70,2013-01-25 14:19:00,
2013-01-25 09:24:00,22.3,-10.8,0.00,West,267,5.0,6.0,22,0.00,,,0.00,Weather View 32 v70,2013-01-25 14:24:00,
2013-01-25 09:29:00,22.5,-10.7,0.00,West,271,4.0,8.0,22,0.00,,,0.00,Weather View 32 v70,2013-01-25 14:29:00,
2013-01-25 09:34:00,22.3,-10.8,0.00,West,280,3.0,8.0,22,0.00,,,0.00,Weather View 32 v70,2013-01-25 14:34:00,
2013-01-25 09:40:00,22.1,-11.0,0.00,WNW,289,4.0,8.0,22,0.00,,,0.00,Weather View 32 v70,2013-01-25 14:40:00,
2013-01-25 09:45:00,21.7,-11.3,0.00,WSW,257,0.0,9.0,22,0.00,,,0.00,Weather View 32 v70,2013-01-25 14:45:00,
2013-01-25 09:50:00,21.7,-11.3,0.00,West,261,12.0,12.0,22,0.00,,,0.00,Weather View 32 v70,2013-01-25 14:50:00,
2013-01-25 09:55:00,21.4,-11.6,0.00,WSW,252,4.0,12.0,22,0.00,,,0.00,Weather View 32 v70,2013-01-25 14:55:00,
2013-01-25 10:00:00,21.4,-11.6,0.00,SW,233,6.0,12.0,22,0.00,,,0.00,Weather View 32 v70,2013-01-25 15:00:00,
2013-01-25 10:05:00,21.4,-11.6,0.00,West,280,6.0,12.0,22,0.00,,,0.00,Weather View 32 v70,2013-01-25 15:05:00,
2013-01-25 10:10:00,21.2,-11.7,0.00,ENE,57,0.0,12.0,22,0.00,,,0.00,Weather View 32 v70,2013-01-25 15:10:00,
2013-01-25 10:16:00,21.4,-11.6,0.00,WSW,237,0.0,12.0,22,0.00,,,0.00,Weather View 32 v70,2013-01-25 15:16:00,
2013-01-25 10:21:00,21.4,-9.0,0.00,North,353,0.0,12.0,25,0.00,,,0.00,Weather View 32 v70,2013-01-25 15:21:00,
2013-01-25 10:26:00,21.2,-9.1,0.00,NE,48,4.0,12.0,25,0.00,,,0.00,Weather View 32 v70,2013-01-25 15:26:00,
2013-01-25 10:31:00,21.2,-9.1,0.00,NW,311,0.0,12.0,25,0.00,,,0.00,Weather View 32 v70,2013-01-25 15:31:00,
2013-01-25 10:36:00,20.7,-9.6,0.00,NW,320,8.0,12.0,25,0.00,,,0.00,Weather View 32 v70,2013-01-25 15:36:00,
2013-01-25 10:41:00,20.3,-9.9,0.00,SSE,164,3.0,12.0,25,0.00,,,0.00,Weather View 32 v70,2013-01-25 15:41:00,
2013-01-25 10:46:00,20.3,-8.4,0.00,NW,304,3.0,12.0,27,0.00,,,0.00,Weather View 32 v70,2013-01-25 15:46:00,
2013-01-25 10:51:00,20.3,-8.4,0.00,West,276,8.0,11.0,27,0.00,,,0.00,Weather View 32 v70,2013-01-25 15:51:00,
2013-01-25 10:56:00,20.3,-9.9,0.00,SE,135,3.0,11.0,25,0.00,,,0.00,Weather View 32 v70,2013-01-25 15:56:00,
2013-01-25 11:01:00,20.3,-8.4,0.00,WSW,258,4.0,8.0,27,0.00,,,0.00,Weather View 32 v70,2013-01-25 16:01:00,
2013-01-25 11:07:00,20.3,-9.9,0.00,West,269,3.0,11.0,25,0.00,,,0.00,Weather View 32 v70,2013-01-25 16:07:00,
2013-01-25 11:12:00,20.3,-9.9,0.00,WNW,283,4.0,11.0,25,0.00,,,0.00,Weather View 32 v70,2013-01-25 16:12:00,
2013-01-25 11:17:00,20.7,-9.6,0.00,WSW,250,3.0,11.0,25,0.00,,,0.00,Weather View 32 v70,2013-01-25 16:17:00,
2013-01-25 11:22:00,20.5,-9.8,0.00,West,270,4.0,11.0,25,0.00,,,0.00,Weather View 32 v70,2013-01-25 16:22:00,
2013-01-25 11:27:00,20.5,-9.8,0.00,West,266,0.0,11.0,25,0.00,,,0.00,Weather View 32 v70,2013-01-25 16:27:00,
2013-01-25 11:32:00,20.5,-9.8,0.00,East,89,3.0,11.0,25,0.00,,,0.00,Weather View 32 v70,2013-01-25 16:32:00,
2013-01-25 11:37:00,20.5,-8.2,0.00,SE,137,3.0,11.0,27,0.00,,,0.00,Weather View 32 v70,2013-01-25 16:37:00,
2013-01-25 11:43:00,20.1,-8.5,0.00,North,7,5.0,11.0,27,0.00,,,0.00,Weather View 32 v70,2013-01-25 16:43:00,
2013-01-25 11:48:00,20.1,-5.0,0.00,NE,38,0.0,11.0,32,0.00,,,0.00,Weather View 32 v70,2013-01-25 16:48:00,
2013-01-25 11:53:00,20.3,-4.2,0.00,South,183,4.0,11.0,33,0.00,,,0.00,Weather View 32 v70,2013-01-25 16:53:00,
2013-01-25 11:58:00,20.3,-6.2,0.00,South,176,2.0,11.0,30,0.00,,,0.00,Weather View 32 v70,2013-01-25 16:58:00,
2013-01-25 12:03:00,20.1,-6.4,0.00,NE,49,5.0,11.0,30,0.00,,,0.00,Weather View 32 v70,2013-01-25 17:03:00,
2013-01-25 12:08:00,20.3,-6.2,0.00,NW,319,3.0,8.0,30,0.00,,,0.00,Weather View 32 v70,2013-01-25 17:08:00,
2013-01-25 12:13:00,20.3,-6.2,0.00,ENE,60,6.0,8.0,30,0.00,,,0.00,Weather View 32 v70,2013-01-25 17:13:00,
2013-01-25 12:18:00,20.7,-8.0,0.00,ENE,78,10.0,10.0,27,0.00,,,0.00,Weather View 32 v70,2013-01-25 17:18:00,
2013-01-25 12:23:00,20.3,-8.4,0.00,West,263,6.0,11.0,27,0.00,,,0.00,Weather View 32 v70,2013-01-25 17:23:00,
2013-01-25 12:28:00,20.3,-4.9,0.00,WSW,255,3.0,11.0,32,0.00,,,0.00,Weather View 32 v70,2013-01-25 17:28:00,
2013-01-25 12:33:00,20.5,-6.0,0.00,SW,227,3.0,11.0,30,0.00,,,0.00,Weather View 32 v70,2013-01-25 17:33:00,
2013-01-25 12:38:00,20.3,-6.2,0.00,West,271,5.0,11.0,30,0.00,,,0.00,Weather View 32 v70,2013-01-25 17:38:00,
2013-01-25 12:43:00,20.5,-6.0,0.00,North,0,5.0,11.0,30,0.00,,,0.00,Weather View 32 v70,2013-01-25 17:43:00,
2013-01-25 12:48:00,20.5,-8.2,0.00,WNW,295,3.0,11.0,27,0.00,,,0.00,Weather View 32 v70,2013-01-25 17:48:00,
2013-01-25 12:53:00,20.8,-7.9,0.00,WSW,251,5.0,11.0,27,0.00,,,0.00,Weather View 32 v70,2013-01-25 17:53:00,
2013-01-25 12:59:00,21.2,-7.6,0.00,West,266,3.0,11.0,27,0.00,,,0.00,Weather View 32 v70,2013-01-25 17:59:00,
2013-01-25 13:04:00,21.7,-7.1,0.00,NW,304,3.0,11.0,27,0.00,,,0.00,Weather View 32 v70,2013-01-25 18:04:00,
2013-01-25 13:09:00,21.9,-8.5,0.00,SE,136,3.0,11.0,25,0.00,,,0.00,Weather View 32 v70,2013-01-25 18:09:00,
2013-01-25 13:14:00,21.9,-8.5,0.00,West,281,5.0,11.0,25,0.00,,,0.00,Weather View 32 v70,2013-01-25 18:14:00,
2013-01-25 13:19:00,21.9,-8.5,0.00,NW,309,5.0,11.0,25,0.00,,,0.00,Weather View 32 v70,2013-01-25 18:19:00,
2013-01-25 13:24:00,22.1,-8.4,0.00,WSW,257,4.0,9.0,25,0.00,,,0.00,Weather View 32 v70,2013-01-25 18:24:00,
2013-01-25 13:29:00,22.1,-8.4,0.00,NNW,327,0.0,9.0,25,0.00,,,0.00,Weather View 32 v70,2013-01-25 18:29:00,
2013-01-25 13:34:00,22.3,-8.2,0.00,NW,304,0.0,9.0,25,0.00,,,0.00,Weather View 32 v70,2013-01-25 18:34:00,
2013-01-25 13:39:00,21.9,-8.5,0.00,West,265,5.0,11.0,25,0.00,,,0.00,Weather View 32 v70,2013-01-25 18:39:00,
2013-01-25 13:44:00,21.7,-8.7,0.00,NW,318,4.0,11.0,25,0.00,,,0.00,Weather View 32 v70,2013-01-25 18:44:00,
2013-01-25 13:50:00,21.6,-8.8,0.00,WNW,292,4.0,11.0,25,0.00,,,0.00,Weather View 32 v70,2013-01-25 18:50:00,
2013-01-25 13:55:00,21.6,-8.8,0.00,WNW,287,4.0,11.0,25,0.00,,,0.00,Weather View 32 v70,2013-01-25 18:55:00,
2013-01-25 14:00:00,21.6,-8.8,0.00,SW,214,0.0,11.0,25,0.00,,,0.00,Weather View 32 v70,2013-01-25 19:00:00,
2013-01-25 18:24:00,23.5,-1.4,0.00,NW,320,0.0,0.0,33,0.00,,,0.00,Weather View 32 v70,2013-01-25 23:24:00,
2013-01-25 18:29:00,23.5,-1.4,0.00,ENE,58,0.0,4.0,33,0.00,,,0.00,Weather View 32 v70,2013-01-25 23:29:00,
2013-01-25 18:34:00,23.7,-1.2,0.00,ENE,58,3.0,4.0,33,0.00,,,0.00,Weather View 32 v70,2013-01-25 23:34:00,
2013-01-25 18:40:00,23.9,-1.0,0.00,NNE,30,4.0,4.0,33,0.00,,,0.00,Weather View 32 v70,2013-01-25 23:40:00,
2013-01-25 18:45:00,23.7,-1.8,0.00,NNE,30,0.0,4.0,32,0.00,,,0.00,Weather View 32 v70,2013-01-25 23:45:00,
2013-01-25 18:50:00,23.7,-1.2,0.00,WNW,287,0.0,4.0,33,0.00,,,0.00,Weather View 32 v70,2013-01-25 23:50:00,
2013-01-25 18:55:00,23.5,-1.4,0.00,WNW,303,3.0,4.0,33,0.00,,,0.00,Weather View 32 v70,2013-01-25 23:55:00,
2013-01-25 19:00:00,23.5,-1.4,0.00,WNW,293,0.0,4.0,33,0.00,,,0.00,Weather View 32 v70,2013-01-26 00:00:00,
2013-01-25 19:05:00,23.7,-1.2,0.00,NE,50,2.0,4.0,33,0.00,,,0.00,Weather View 32 v70,2013-01-26 00:05:00,
2013-01-25 19:10:00,23.7,-1.2,0.00,WNW,302,2.0,5.0,33,0.00,,,0.00,Weather View 32 v70,2013-01-26 00:10:00,
2013-01-25 19:15:00,23.7,-1.2,0.00,WNW,289,4.0,5.0,33,0.00,,,0.00,Weather View 32 v70,2013-01-26 00:15:00,
2013-01-25 19:20:00,23.7,-1.2,0.00,WNW,294,4.0,6.0,33,0.00,,,0.00,Weather View 32 v70,2013-01-26 00:20:00,
2013-01-25 19:25:00,23.7,-1.2,0.00,NNW,340,3.0,6.0,33,0.00,,,0.00,Weather View 32 v70,2013-01-26 00:25:00,
2013-01-25 19:30:00,23.7,-0.6,0.00,WNW,284,4.0,6.0,34,0.00,,,0.00,Weather View 32 v70,2013-01-26 00:30:00,
2013-01-25 19:35:00,23.7,-0.6,0.00,WNW,289,4.0,6.0,34,0.00,,,0.00,Weather View 32 v70,2013-01-26 00:35:00,
2013-01-25 19:40:00,23.9,0.2,0.00,NW,325,6.0,6.0,35,0.00,,,0.00,Weather View 32 v70,2013-01-26 00:40:00,
2013-01-25 19:45:00,23.9,-0.4,0.00,WNW,295,3.0,6.0,34,0.00,,,0.00,Weather View 32 v70,2013-01-26 00:45:00,
2013-01-25 19:50:00,24.1,0.4,0.00,WNW,285,3.0,6.0,35,0.00,,,0.00,Weather View 32 v70,2013-01-26 00:50:00,
2013-01-25 19:55:00,24.1,0.4,0.00,WNW,286,4.0,6.0,35,0.00,,,0.00,Weather View 32 v70,2013-01-26 00:55:00,
2013-01-25 20:00:00,24.3,0.5,0.00,WNW,290,0.0,6.0,35,0.00,,,0.00,Weather View 32 v70,2013-01-26 01:00:00,
2013-01-25 20:06:00,24.3,0.5,0.00,WNW,300,4.0,6.0,35,0.00,,,0.00,Weather View 32 v70,2013-01-26 01:06:00,
2013-01-25 20:11:00,24.4,0.7,0.00,WNW,297,3.0,6.0,35,0.00,,,0.00,Weather View 32 v70,2013-01-26 01:11:00,
2013-01-25 20:16:00,24.6,0.9,0.00,NW,320,0.0,6.0,35,0.00,,,0.00,Weather View 32 v70,2013-01-26 01:16:00,
2013-01-25 20:20:00,24.6,0.9,0.00,WNW,301,3.0,6.0,35,0.00,,,0.00,Weather View 32 v70,2013-01-26 01:20:00,
2013-01-25 20:21:00,24.8,1.0,0.00,WNW,301,4.0,6.0,35,0.00,,,0.00,Weather View 32 v70,2013-01-26 01:21:00,